Location: Newark
(48.5583°N, 3.1564°W)
Time: 09:31:10
(UTC+00:00)

N. Korean satellite - Visible Passes

Search period start: 20 October 2019 00:00
Search period end: 30 October 2019 00:00
Orbit: 455 x 508 km, 97.2° (Epoch: 19 October)

Date Brightness Start Highest point End Pass type
(mag) Time Alt. Az. Time Alt. Az. Time Alt. Az.
21 Oct 7.7 05:56:37 10° NNE 06:00:09 49° E 06:03:43 10° S visible
21 Oct 9.8 18:10:05 10° SW 18:12:34 19° W 18:15:05 10° NW visible
22 Oct 9.2 05:31:40 10° NE 05:34:44 25° E 05:37:50 10° SSE visible
22 Oct 8.4 17:43:55 10° SSW 17:47:06 36° W 17:50:21 10° NNW visible
23 Oct 10.2 05:07:15 10° ENE 05:09:15 14° E 05:11:14 10° ESE visible
24 Oct 10.2 18:28:46 10° WSW 18:30:11 12° W 18:31:37 10° WNW visible
25 Oct 8.2 05:48:49 10° NNE 05:52:17 40° E 05:55:47 10° S visible
25 Oct 9.4 18:01:51 10° SSW 18:04:38 23° W 18:07:29 10° NW visible
26 Oct 9.5 05:23:57 10° NE 05:26:51 22° E 05:29:45 10° SE visible
26 Oct 7.9 17:35:52 10° S 17:39:11 44° W 17:42:35 10° NNW visible
27 Oct 10.4 04:59:55 10° ENE 05:01:19 12° E 05:02:42 10° ESE visible
28 Oct 7.1 06:06:07 10° NNE 06:09:46 66° E 06:13:28 10° S visible
28 Oct 10.0 18:20:09 10° SW 18:22:12 15° W 18:24:17 10° NW visible
29 Oct 8.6 05:41:01 10° NNE 05:44:23 33° E 05:47:46 10° SSE visible
29 Oct 8.9 17:53:39 10° SSW 17:56:41 28° W 17:59:46 10° NW visible
